Location: Proctor
(47.8934°N, 114.3048°W)
Time: 11:07:16
(UTC+00:00)

Transit 4A - Pass Details

Date: 04 July 2024
Orbit: 870 x 973 km, 66.8° (Epoch: 13 July)

Event Time Altitude Azimuth Distance (km) Brightness Sun altitude
Rises 06:44:14 0° 291° (WNW) 3,462 11.4 -18.1°
Reaches altitude 10° 06:48:13 10° 318° (NW) 2,532 11.1 -18.3°
Maximum altitude 06:50:58 13° 346° (NNW) 2,304 11.1 -18.4°
Drops below altitude 10° 06:53:45 10° 15° (NNE) 2,552 11.1 -18.5°
Sets 06:57:49 0° 42° (NE) 3,512 11.5 -18.6°
